Home > Weather > Owen Sound > Past weeks

Flag for Canada Weather for the Past 2 Weeks in Owen Sound, Ontario, Canada

Now
-2 °F

Scattered flurries. Low level haze.


Feels Like: -17 °F
Forecast: N/A
Wind: 8 mph from Northwest

Location: Wiarton

Current Time: Feb 13, 2016 at 5:36:07 PM

Latest Report: Feb 13, 2016 at 5:00 PM


Visibility: 12 mi

Pressure: 30.45 "Hg

Humidity: 59%

Dew point: -13 °F

Location of Owen SoundLocation

Historic Weather in Owen Sound — Graph

°F

Owen Sound Temperature Yesterday

Maximum temperature yesterday: 23 °F (at 12:00 PM)
Minimum temperature yesterday: 1 °F (at 11:00 PM)
Average temperature yesterday: 17 °F

High & Low Weather Summary for the Past Weeks

 TemperatureHumidityPressure
High45 °F (Jan 31, 3:57 PM)100% (Jan 31, 8:00 PM)30.44 "Hg (Jan 31, 8:00 PM)
Low-11 °F (Feb 13, 7:00 AM)54% (Feb 13, 12:00 PM)29.41 "Hg (Jan 31, 9:00 PM)
Average26 °F82%29.90 "Hg
* Reported Jan 29 4:00 PM — Feb 13 4:00 PM, Owen Sound, Weather by CustomWeather, © 2016

Note: Actual official high and low records may vary slightly from our data, if they occured in-between our weather recording intervals... More about our weather records

Advertising

Owen Sound Weather History for the Previous 24 Hours

 ConditionsComfort  
Time TempWeatherWind HumidityBarometerVisibility
4:00 PM
Sat, Feb 13
-2 °FScattered flurries. Low level haze.10 mph59%30.44 "Hg12 mi
3:00 PM-2 °FScattered flurries. Low level haze.8 mph59%30.42 "Hg12 mi
2:00 PM-2 °FLow level haze.10 mph54%30.42 "Hg12 mi
1:00 PM-4 °FLow level haze.9 mph54%30.42 "Hg12 mi
12:00 PM-6 °FLow level haze.10 mph54%30.43 "Hg10 mi
11:00 AM-6 °FLow level haze.12 mph59%30.42 "Hg10 mi
10:00 AM-8 °FScattered flurries. Low level haze.13 mph64%30.41 "Hg10 mi
9:00 AM-9 °FScattered flurries. Low level haze.9 mph70%30.40 "Hg8 mi
8:00 AM-11 °FSnow flurries. Partly sunny.9 mph76%30.37 "Hg4 mi
7:00 AM-11 °FLow level haze.9 mph76%30.35 "Hg8 mi
6:00 AM-9 °FSnow flurries. Passing clouds.13 mph77%30.34 "Hg3 mi
5:00 AM-9 °FSnow flurries. Passing clouds.10 mph84%30.31 "Hg3 mi
4:00 AM-8 °FFrigid.10 mph77%30.29 "Hg1 mi
3:00 AM-6 °FSnow flurries. Ice fog.7 mph77%30.27 "Hg1 mi
2:00 AM-6 °FSnow flurries. Ice fog.13 mph84%30.23 "Hg1 mi
1:00 AM-2 °FSnow flurries. Ice fog.14 mph77%30.20 "Hg1 mi
12:00 AM0 °FSnow flurries. Ice fog.12 mph84%30.16 "Hg1 mi
11:00 PM
Fri, Feb 12
1 °FSnow flurries. Passing clouds.10 mph85%30.12 "Hg3 mi
10:00 PM3 °FLow level haze.12 mph78%30.08 "Hg4 mi
9:00 PM7 °FLight mixture of precip. Passing clouds.16 mph78%30.03 "Hg4 mi
8:00 PM10 °FPassing clouds.9 mph79%30.00 "Hg8 mi
7:00 PM12 °FSnow flurries. Overcast.10 mph73%29.98 "Hg8 mi
6:00 PM12 °FPartly cloudy.9 mph67%29.95 "Hg10 mi
5:00 PM14 °FLight mixture of precip. Broken clouds.10 mph62%29.92 "Hg12 mi
Weather by CustomWeather, © 2016

See weather overviewHow to use our weather pages